Location: Oklahoma City
(35.4680°N, 97.5160°W)
Time: 13:41:26
(UTC-05:00)

ISS - All Passes

Search period start: 29 September 2016 00:00
Search period end: 09 October 2016 00:00
Orbit: 400 x 410 km, 51.6° (Epoch: 29 September)

Date Brightness Start Highest point End Pass type
(mag) Time Alt. Az. Time Alt. Az. Time Alt. Az.
29 Sep - 02:09:08 10° N 02:10:28 12° NNE 02:11:47 10° NE night (unlit)
29 Sep - 03:44:08 10° NW 03:47:25 78° NE 03:50:42 10° SE night (unlit)
29 Sep - 18:48:31 10° SE 18:48:59 10° SE 18:49:25 10° ESE daylight
29 Sep - 20:21:51 10° WSW 20:25:03 59° NW 20:28:16 10° NE visible
29 Sep - 22:01:41 10° NNW 22:02:06 10° NNW 22:02:32 10° NNW visible
30 Sep - 02:52:10 10° NNW 02:55:16 37° NE 02:58:21 10° ESE night (unlit)
30 Sep - 04:29:19 10° W 04:31:31 17° SW 04:33:43 10° S night (unlit)
30 Sep - 19:29:45 10° SW 19:32:57 62° SE 19:36:09 10° NE daylight
30 Sep - 21:07:42 10° WNW 21:09:42 15° NNW 21:11:43 10° N visible
01 Oct - 02:00:24 10° NNW 02:03:01 21° NNE 02:05:37 10° E night (unlit)
01 Oct - 03:36:32 10° WNW 03:39:33 34° SW 03:42:34 10° SSE night (unlit)
01 Oct - 18:38:06 10° SSW 18:40:55 28° SE 18:43:45 10° ENE daylight
01 Oct - 20:14:39 10° W 20:17:22 24° NNW 20:20:07 10° NNE visible
02 Oct - 01:08:52 10° N 01:10:39 14° NNE 01:12:26 10° ENE night (unlit)
02 Oct - 02:44:13 10° NW 02:47:29 79° SW 02:50:46 10° SE night (unlit)
02 Oct - 17:47:16 10° SSE 17:48:57 14° SE 17:50:39 10° E daylight
02 Oct - 19:22:00 10° WSW 19:25:07 44° NW 19:28:16 10° NE daylight
03 Oct - 01:52:09 10° NW 01:55:20 48° NE 01:58:31 10° ESE night (unlit)
03 Oct - 03:29:55 10° W 03:31:29 13° SW 03:33:03 10° SSW night (unlit)
03 Oct - 18:29:43 10° SW 18:32:56 84° SE 18:36:12 10° NE daylight
03 Oct - 20:08:12 10° NW 20:09:49 13° NNW 20:11:27 10° N visible
04 Oct - 01:00:16 10° NNW 01:03:04 26° NE 01:05:53 10° E night (unlit)
04 Oct - 02:36:42 10° WNW 02:39:30 26° SW 02:42:18 10° S night (unlit)
04 Oct - 17:37:50 10° SSW 17:40:51 36° SE 17:43:53 10° ENE daylight
04 Oct - 19:14:55 10° W 19:17:24 20° NNW 19:19:56 10° NNE daylight
05 Oct - 00:08:36 10° NNW 00:10:43 16° NNE 00:12:50 10° ENE night (unlit)
05 Oct - 01:44:13 10° NW 01:47:26 58° SW 01:50:40 10° SE night (unlit)
05 Oct - 16:46:34 10° S 16:48:49 18° SE 16:51:05 10° E daylight
05 Oct - 18:22:05 10° WSW 18:25:06 35° NW 18:28:07 10° NNE daylight
05 Oct - 23:17:29 10° N 23:18:15 11° NNE 23:19:01 10° NE night (unlit)
06 Oct - 00:52:01 10° NW 00:55:17 63° NE 00:58:31 10° ESE night (unlit)
06 Oct - 17:29:38 10° SW 17:32:51 73° NW 17:36:06 10° NE daylight
06 Oct - 19:08:44 10° NW 19:09:49 11° NNW 19:10:55 10° N daylight
07 Oct - 00:00:03 10° NNW 00:03:01 31° NE 00:05:59 10° E night (unlit)
07 Oct - 01:36:50 10° W 01:39:20 20° SW 01:41:50 10° S night (unlit)
07 Oct - 16:37:33 10° SSW 16:40:41 49° SE 16:43:50 10° ENE daylight
07 Oct - 18:15:07 10° WNW 18:17:21 17° NNW 18:19:36 10° NNE daylight
07 Oct - 23:08:15 10° NNW 23:10:39 19° NNE 23:13:03 10° ENE night (unlit)
08 Oct - 00:44:08 10° WNW 00:47:15 43° SW 00:50:22 10° SSE night (unlit)
08 Oct - 15:45:58 10° S 15:48:36 23° SE 15:51:13 10° ENE daylight
08 Oct - 17:22:06 10° W 17:24:58 28° NW 17:27:50 10° NNE daylight
08 Oct - 22:16:46 10° N 22:18:11 12° NNE 22:19:35 10° NE night (unlit)
08 Oct - 23:51:49 10° NW 23:55:05 84° NE 23:58:21 10° SE night (unlit)
